WetterOnline ( https://www.wetteronline.de )

Wetter aktuell Sonneberg

Aktuelles Wetter: Coburg (323m)

6-stündlich | Neueste Meldungen
Ortszeit Temperatur Wetter
Do, 04.03. 1:00 2.3° C wolkig
Mi, 03.03. 19:00 6.8° C wolkig
Mi, 03.03. 13:00 8.0° C leicht bewölkt
Mi, 03.03. 7:00 -1.7° C wolkenlos
Mi, 03.03. 1:00 1.1° C wolkenlos
Di, 02.03. 19:00 8.8° C wolkenlos
Di, 02.03. 13:00 11.9° C wolkenlos
Di, 02.03. 7:00 -1.5° C wolkenlos
Ortszeit Temperatur Wetter
Do, 04.03. 1:30 1.7° C wolkig
Do, 04.03. 1:20 1.7° C wolkig
Do, 04.03. 1:10 2.0° C wolkig
Do, 04.03. 1:00 2.3° C wolkig
Do, 04.03. 0:50 2.3° C wolkig
Do, 04.03. 0:40 2.3° C wolkig
Do, 04.03. 0:30 2.1° C bewölkt
Do, 04.03. 0:00 2.3° C wolkig
Ortszeit Relative Feuchte Sichtweite
Do, 04.03. 1:00 91% 8 km
Mi, 03.03. 19:00 75% 15 km
Mi, 03.03. 13:00 61% 12 km
Mi, 03.03. 7:00 86% 30 km
Mi, 03.03. 1:00 74% 45 km
Di, 02.03. 19:00 51% 60 km
Di, 02.03. 13:00 38% 55 km
Di, 02.03. 7:00 90% 40 km
Ortszeit Relative Feuchte Sichtweite
Do, 04.03. 1:30 92% 7 km
Do, 04.03. 1:20 92% -
Do, 04.03. 1:10 92% -
Do, 04.03. 1:00 91% 8 km
Do, 04.03. 0:50 91% -
Do, 04.03. 0:40 92% -
Do, 04.03. 0:30 92% 8 km
Do, 04.03. 0:00 91% 9 km
Ortszeit Niederschlagsmenge Niederschlagsart
Do, 04.03. 1:00 0.0 l/m2 in 6 Std. -
Mi, 03.03. 19:00 0.0 l/m2 in 12 Std. -
Mi, 03.03. 13:00 0.0 l/m2 in 6 Std. -
Mi, 03.03. 7:00 0.0 l/m2 in 12 Std. -
Mi, 03.03. 1:00 0.0 l/m2 in 6 Std. -
Di, 02.03. 19:00 0.0 l/m2 in 12 Std. -
Di, 02.03. 13:00 0.0 l/m2 in 6 Std. -
Di, 02.03. 7:00 0.0 l/m2 in 12 Std. -
Ortszeit Niederschlagsmenge Niederschlagsart
Do, 04.03. 1:30 0.0 l/m2 in 1 Std. -
Do, 04.03. 1:20 keine Meldung -
Do, 04.03. 1:10 keine Meldung -
Do, 04.03. 1:00 0.0 l/m2 in 1 Std. -
Do, 04.03. 0:50 keine Meldung -
Do, 04.03. 0:40 keine Meldung -
Do, 04.03. 0:30 0.0 l/m2 in 1 Std. -
Do, 04.03. 0:00 0.0 l/m2 in 1 Std. -
Ortszeit Stärke Spitze Richtung
km/h Bft. km/h Grad Sektor
Do, 04.03. 1:00 9 2 17 30° NO
Mi, 03.03. 19:00 2 1 11 40° NO
Mi, 03.03. 13:00 4 1 18 190° S
Mi, 03.03. 7:00 13 3 20 50° NO
Mi, 03.03. 1:00 14 3 22 50° NO
Di, 02.03. 19:00 9 2 19 10° N
Di, 02.03. 13:00 11 2 25 130° SO
Di, 02.03. 7:00 7 2 18 50° NO
Ortszeit Stärke Spitze Richtung
km/h Bft. km/h Grad Sektor
Do, 04.03. 1:30 6 1 13 60° NO
Do, 04.03. 1:20 6 1 - 60° NO
Do, 04.03. 1:10 9 2 - 30° NO
Do, 04.03. 1:00 9 2 13 30° NO
Do, 04.03. 0:50 9 2 - 30° NO
Do, 04.03. 0:40 9 2 - 20° N
Do, 04.03. 0:30 11 2 13 30° NO
Do, 04.03. 0:00 11 2 14 50° NO
Ortszeit Untergrenze Bedeckung Gattung
total tief tief mittel hoch
Do, 04.03. 1:00 3300 m 8/8 1/8 - - -
Mi, 03.03. 19:00 9000 m 8/8 0/8 - - -
Mi, 03.03. 13:00 8400 m 3/8 0/8 - - -
Mi, 03.03. 7:00 - 0/8 0/8 - - -
Mi, 03.03. 1:00 - 0/8 0/8 - - -
Di, 02.03. 19:00 - 0/8 0/8 - - -
Di, 02.03. 13:00 - 0/8 0/8 - - -
Di, 02.03. 7:00 - 0/8 0/8 - - -
Ortszeit Bedeckungsgrad in Achtel und Wolkenuntergrenze
Do, 04.03. 1:30 8(7200m) 8(8400m)
Do, 04.03. 1:20 8(7200m) 8(8400m)
Do, 04.03. 1:10 8(7200m) 8(8700m)
Do, 04.03. 1:00 1(3300m) 8(7200m) 8(8700m)
Do, 04.03. 0:50 1(3300m) 8(7200m) 8(8700m)
Do, 04.03. 0:40 2(3000m) 8(7200m) 8(9000m)
Do, 04.03. 0:30 7(3000m) 8(7200m)
Do, 04.03. 0:00 3(3300m) 7(7800m) 8(8400m)
Ortszeit Luftdruck NN (hPa) Tendenz (hPa in 3 Std.)
Do, 04.03. 1:00 1025 - 1,4
Mi, 03.03. 19:00 1027 - 0,8
Mi, 03.03. 13:00 1030 - 1,1
Mi, 03.03. 7:00 1032 - 0,8
Mi, 03.03. 1:00 1033 - 0,1
Di, 02.03. 19:00 1032 0,0
Di, 02.03. 13:00 1033 - 1,0
Di, 02.03. 7:00 1035 + 0,3
Ortszeit Luftdruck NN (hPa) Tendenz (hPa in 3 Std.)
Do, 04.03. 1:30 1025 - 1,4
Do, 04.03. 1:20 1025 keine Meldung
Do, 04.03. 1:10 1025 keine Meldung
Do, 04.03. 1:00 1025 - 1,4
Do, 04.03. 0:50 1025 keine Meldung
Do, 04.03. 0:40 1026 keine Meldung
Do, 04.03. 0:30 1026 - 1,3
Do, 04.03. 0:00 1026 - 1,2
Ortszeit Schneehöhe (cm)
Do, 04.03. 1:00 0
Mi, 03.03. 19:00 0
Mi, 03.03. 13:00 0
Mi, 03.03. 7:00 0
Mi, 03.03. 1:00 0
Di, 02.03. 19:00 0
Di, 02.03. 13:00 0
Di, 02.03. 7:00 0
Ortszeit Schneehöhe (cm)
Do, 04.03. 1:30 0
Do, 04.03. 1:20 0
Do, 04.03. 1:10 0
Do, 04.03. 1:00 0
Do, 04.03. 0:50 0
Do, 04.03. 0:40 0
Do, 04.03. 0:30 0
Do, 04.03. 0:00 0
Link zu dieser Seite / Seite empfehlen

Das Wetter in ...